Weather History for KRTS - October, 2012

Change the Weather History Date:

Saturday, October 13, 2012

  Actual Average (KRNO) Record (KRNO)
Temperature  
Mean Temperature 52 °F 55 °F  
Max Temperature 66 °F 71 °F 87 °F (1971)
Min Temperature 37 °F 40 °F 22 °F (1942)
Degree Days  
Heating Degree Days 14 10  
Month to date heating degree days 104  
Since 1 July heating degree days 194  
Cooling Degree Days 0 0  
Month to date cooling degree days 4  
Year to date cooling degree days 838  
Growing Degree Days 2 (Base 50)    
Moisture  
Dew Point 34 °F    
Average Humidity 56    
Maximum Humidity 93    
Minimum Humidity 32    
Precipitation  
Precipitation 0.00 in 0.02 in 1.46 in (1962)
Month to date precipitation 0.21  
Year to date precipitation 5.25  
Snow  
Snow - 0.00 in 0.80 in (1920)
Month to date snowfall 0.1  
Since 1 July snowfall 0.2  
Since 1 September snowfall 0.2  
Snow Depth -    
Sea Level Pressure  
Sea Level Pressure 30.33 in    
Wind  
Wind Speed 6 mph ()    
Max Wind Speed 13 mph    
Max Gust Speed 18 mph    
Visibility 10.0 miles    
Events      
T = Trace of Precipitation, MM = Missing Value Source: Averaged Metar Reports

Daily Weather History Graph

Daily Weather History Graph

Search for Another Location

Airport or City:

Trip Planner

Search our weather history database for the weather conditions in past years. The results will help you decide how hot, cold, wet, or windy it might be!

Date:

Astronomy

Oct. 13, 2012 Rise Set
Actual Time 7:08 AM PDT 6:22 PM PDT
Civil Twilight 6:41 AM PDT 6:49 PM PDT
Nautical Twilight 6:09 AM PDT 7:20 PM PDT
Astronomical Twilight 5:38 AM PDT 7:51 PM PDT
Moon 5:04 AM PDT (10/13) 5:08 PM PDT (10/13)
Length of Visible Light 12h 08m
Length of Day
11h 14m
Waning Crescent, 4% of the Moon is Illuminated
Oct 13
Waning Crescent
Oct 15
New
Oct 21
First Quarter
Oct 29
Full
Nov 6
Last Quarter

Hourly Weather History & Observations

Time (PDT) Temp. Windchill Dew Point Humidity Pressure Visibility Wind Dir Wind Speed Gust Speed Precip Events Conditions
12:15 AM 44.6 °F 38.4 °F 35.6 °F 71% 30.24 in 10.0 mi West 12.7 mph 17.3 mph N/A   Clear
12:35 AM 44.6 °F 39.7 °F 35.6 °F 71% 30.24 in 10.0 mi West 9.2 mph - N/A   Clear
12:55 AM 44.6 °F 39.7 °F 35.6 °F 71% 30.24 in 10.0 mi West 9.2 mph - N/A   Clear
1:15 AM 42.8 °F 37.5 °F 35.6 °F 76% 30.25 in 10.0 mi NW 9.2 mph - N/A   Clear
1:35 AM 44.6 °F 39.7 °F 35.6 °F 71% 30.25 in 10.0 mi NW 9.2 mph - N/A   Clear
1:55 AM 41.0 °F 33.9 °F 33.8 °F 76% 30.25 in 10.0 mi NW 12.7 mph - N/A   Clear
3:35 AM 39.2 °F 37.0 °F 32.0 °F 75% 30.27 in 10.0 mi West 3.5 mph - N/A   Clear
3:55 AM 41.0 °F 36.4 °F 32.0 °F 70% 30.28 in 10.0 mi NW 6.9 mph - N/A   Clear
4:15 AM 41.0 °F 36.4 °F 33.8 °F 76% 30.29 in 10.0 mi NW 6.9 mph - N/A   Clear
4:35 AM 42.8 °F 36.6 °F 33.8 °F 70% 30.29 in 10.0 mi NNW 11.5 mph - N/A   Clear
4:55 AM 42.8 °F 37.0 °F 35.6 °F 76% 30.30 in 10.0 mi NW 10.4 mph - N/A   Clear
5:15 AM 41.0 °F 34.3 °F 35.6 °F 81% 30.32 in 10.0 mi WNW 11.5 mph 18.4 mph N/A   Clear
5:55 AM 39.2 °F 35.0 °F 33.8 °F 81% 30.31 in 10.0 mi West 5.8 mph - N/A   Partly Cloudy
6:15 AM 39.2 °F 35.9 °F 33.8 °F 81% 30.32 in 10.0 mi NNW 4.6 mph - N/A   Clear
6:55 AM 39.2 °F 33.0 °F 33.8 °F 81% 30.34 in 10.0 mi WNW 9.2 mph - N/A   Clear
7:15 AM 37.4 °F 33.8 °F 32.0 °F 81% 30.35 in 10.0 mi North 4.6 mph - N/A   Clear
7:35 AM 37.4 °F 34.9 °F 32.0 °F 81% 30.35 in 10.0 mi NE 3.5 mph - N/A   Clear
7:55 AM 37.4 °F 32.8 °F 35.6 °F 93% 30.34 in 10.0 mi NNW 5.8 mph - N/A   Clear
8:15 AM 41.0 °F 36.4 °F 35.6 °F 81% 30.36 in 10.0 mi NW 6.9 mph - N/A   Clear
9:15 AM 46.4 °F 44.3 °F 35.6 °F 66% 30.37 in 10.0 mi North 4.6 mph - N/A   Clear
9:35 AM 48.2 °F - 35.6 °F 62% 30.38 in 10.0 mi North 3.5 mph - N/A   Clear
9:55 AM 50.0 °F - 35.6 °F 58% 30.38 in 10.0 mi SW 3.5 mph - N/A   Clear
10:15 AM 50.0 °F - 35.6 °F 58% 30.38 in 10.0 mi Calm Calm - N/A   Clear
10:35 AM 51.8 °F - 35.6 °F 54% 30.38 in 10.0 mi Calm Calm - N/A   Clear
10:55 AM 53.6 °F - 35.6 °F 51% 30.38 in 10.0 mi Calm Calm - N/A   Clear
11:15 AM 57.2 °F - 33.8 °F 41% 30.38 in 10.0 mi SSW 4.6 mph - N/A   Clear
11:35 AM 57.2 °F - 32.0 °F 38% 30.38 in 10.0 mi South 3.5 mph - N/A   Clear
11:55 AM 59.0 °F - 33.8 °F 39% 30.38 in 10.0 mi East 3.5 mph - N/A   Clear
12:15 PM 59.0 °F - 33.8 °F 39% 30.38 in 10.0 mi Calm Calm - N/A   Clear
12:35 PM 60.8 °F - 35.6 °F 39% 30.37 in 10.0 mi Calm Calm - N/A   Clear
1:15 PM 62.6 °F - 35.6 °F 37% 30.36 in 10.0 mi West 4.6 mph - N/A   Clear
1:35 PM 64.4 °F - 37.4 °F 37% 30.35 in 10.0 mi ESE 3.5 mph - N/A   Scattered Clouds
1:55 PM 66.2 °F - 37.4 °F 35% 30.34 in 10.0 mi ESE 10.4 mph - N/A   Partly Cloudy
2:15 PM 64.4 °F - 37.4 °F 37% 30.33 in 10.0 mi SE 9.2 mph - N/A   Clear
2:55 PM 66.2 °F - 35.6 °F 32% 30.31 in 10.0 mi SSE 6.9 mph - N/A   Clear
3:35 PM 66.2 °F - 35.6 °F 32% 30.31 in 10.0 mi South 4.6 mph - N/A   Clear
3:55 PM 66.2 °F - 35.6 °F 32% 30.30 in 10.0 mi Calm Calm - N/A   Clear
4:15 PM 66.2 °F - 35.6 °F 32% 30.30 in 10.0 mi East 5.8 mph - N/A   Clear
4:35 PM 66.2 °F - 35.6 °F 32% 30.30 in 10.0 mi ESE 5.8 mph - N/A   Clear
4:55 PM 66.2 °F - 35.6 °F 32% 30.30 in 10.0 mi South 3.5 mph - N/A   Clear
5:15 PM 66.2 °F - 35.6 °F 32% 30.30 in 10.0 mi SSE 3.5 mph - N/A   Clear
5:35 PM 66.2 °F - 35.6 °F 32% 30.31 in 10.0 mi Calm Calm - N/A   Clear
6:15 PM 64.4 °F - 35.6 °F 34% 30.30 in 10.0 mi Calm Calm - N/A   Clear
7:55 PM 55.4 °F - 33.8 °F 44% 30.34 in 10.0 mi Calm Calm - N/A   Clear
8:15 PM 55.4 °F - 35.6 °F 47% 30.34 in 10.0 mi West 3.5 mph - N/A   Clear
8:55 PM 51.8 °F - 32.0 °F 47% 30.35 in 10.0 mi NW 3.5 mph - N/A   Clear
9:35 PM 50.0 °F - 32.0 °F 50% 30.36 in 10.0 mi NNE 3.5 mph - N/A   Clear
10:15 PM 48.2 °F - 32.0 °F 54% 30.35 in 10.0 mi NNW 3.5 mph - N/A   Clear
10:35 PM 48.2 °F - 32.0 °F 54% 30.34 in 10.0 mi SE 4.6 mph - N/A   Clear
10:55 PM 44.6 °F - 30.2 °F 57% 30.34 in 10.0 mi Calm Calm - N/A   Clear
11:15 PM 44.6 °F 41.4 °F 32.0 °F 61% 30.34 in 10.0 mi North 5.8 mph - N/A   Clear
11:35 PM 44.6 °F 41.4 °F 32.0 °F 61% 30.33 in 10.0 mi North 5.8 mph - N/A   Clear
11:55 PM 44.6 °F 41.4 °F 32.0 °F 61% 30.34 in 10.0 mi North 5.8 mph - N/A   Clear